Time,TemperatureF,DewpointF,PressureIn,WindDirection,WindDirectionDegrees,WindSpeedMPH,WindSpeedGustMPH,Humidity,HourlyPrecipIn,Conditions,Clouds,dailyrainin,SolarRadiationWatts/m^2,SoftwareType,DateUTC
2013-01-20 00:00:00,37.9,36.3,30.27,NE,36,0.0,0.0,94,0.00,,,0.00,0.0,meteohub,2013-01-20 06:00:00,
2013-01-20 00:05:00,37.9,36.3,30.27,NE,36,0.0,0.0,94,0.00,,,0.00,0.0,meteohub,2013-01-20 06:05:00,
2013-01-20 00:10:00,37.9,36.7,30.27,NE,36,0.0,0.0,95,0.00,,,0.00,0.0,meteohub,2013-01-20 06:10:00,
2013-01-20 00:15:00,37.9,36.7,30.27,NE,36,0.0,0.0,95,0.00,,,0.00,0.0,meteohub,2013-01-20 06:15:00,
2013-01-20 00:20:00,37.8,36.5,30.27,NE,36,0.0,0.0,95,0.00,,,0.00,0.0,meteohub,2013-01-20 06:20:00,
2013-01-20 00:25:00,37.8,36.5,30.27,NE,36,0.0,0.0,95,0.00,,,0.00,0.0,meteohub,2013-01-20 06:25:00,
2013-01-20 00:30:00,37.6,36.3,30.27,NE,36,0.0,0.0,95,0.00,,,0.00,0.0,meteohub,2013-01-20 06:30:00,
2013-01-20 00:35:00,37.6,36.3,30.27,NE,36,0.0,0.0,95,0.00,,,0.00,0.0,meteohub,2013-01-20 06:35:00,
2013-01-20 00:40:00,37.6,36.3,30.27,NE,36,0.0,0.0,95,0.00,,,0.00,0.0,meteohub,2013-01-20 06:40:00,
2013-01-20 00:45:00,37.6,36.3,30.27,NE,36,0.0,0.0,95,0.00,,,0.00,0.0,meteohub,2013-01-20 06:45:00,
2013-01-20 00:50:00,37.2,36.0,30.27,NE,36,0.0,0.0,95,0.00,,,0.00,0.0,meteohub,2013-01-20 06:50:00,
2013-01-20 00:55:00,37.2,36.0,30.27,NE,36,0.0,0.0,95,0.00,,,0.00,0.0,meteohub,2013-01-20 06:55:00,
2013-01-20 01:00:00,37.2,36.0,30.27,NE,36,0.0,0.0,95,0.00,,,0.00,0.0,meteohub,2013-01-20 07:00:00,
2013-01-20 01:05:00,37.2,36.0,30.27,NE,36,0.0,0.0,95,0.00,,,0.00,0.0,meteohub,2013-01-20 07:05:00,
2013-01-20 01:10:00,37.2,36.0,30.26,NE,36,0.0,0.0,95,0.00,,,0.00,0.0,meteohub,2013-01-20 07:10:00,
2013-01-20 01:15:00,37.0,35.8,30.26,NE,36,0.0,0.0,95,0.00,,,0.00,0.0,meteohub,2013-01-20 07:15:00,
2013-01-20 01:20:00,37.0,35.8,30.27,NE,36,0.0,0.0,95,0.00,,,0.00,0.0,meteohub,2013-01-20 07:20:00,
2013-01-20 01:25:00,37.0,35.8,30.27,NE,36,0.0,0.0,95,0.00,,,0.00,0.0,meteohub,2013-01-20 07:25:00,
2013-01-20 01:30:00,37.0,35.8,30.27,NE,36,0.0,0.0,95,0.00,,,0.00,0.0,meteohub,2013-01-20 07:30:00,
2013-01-20 01:36:00,36.9,35.6,30.27,NE,36,0.0,0.0,95,0.00,,,0.00,0.0,meteohub,2013-01-20 07:36:00,
2013-01-20 01:41:00,36.9,35.6,30.27,NE,36,0.0,0.0,95,0.00,,,0.00,0.0,meteohub,2013-01-20 07:41:00,
2013-01-20 01:45:00,36.9,35.6,30.27,NE,36,0.0,0.0,95,0.00,,,0.00,0.0,meteohub,2013-01-20 07:45:00,
2013-01-20 01:51:00,36.7,35.4,30.27,NE,36,0.0,0.0,95,0.00,,,0.00,0.0,meteohub,2013-01-20 07:51:00,
2013-01-20 01:56:00,36.7,35.4,30.27,NE,36,0.0,0.0,95,0.00,,,0.00,0.0,meteohub,2013-01-20 07:56:00,
2013-01-20 02:01:00,36.7,35.4,30.27,NE,36,0.0,0.0,95,0.00,,,0.00,0.0,meteohub,2013-01-20 08:01:00,
2013-01-20 02:06:00,36.7,35.6,30.27,NE,36,0.0,0.0,96,0.00,,,0.00,0.0,meteohub,2013-01-20 08:06:00,
2013-01-20 02:11:00,36.3,35.2,30.27,NE,36,0.0,0.0,96,0.00,,,0.00,0.0,meteohub,2013-01-20 08:11:00,
2013-01-20 02:16:00,36.3,35.1,30.27,NE,36,0.0,0.0,95,0.00,,,0.00,0.0,meteohub,2013-01-20 08:16:00,
2013-01-20 02:21:00,36.1,34.9,30.27,NE,36,0.0,0.0,95,0.00,,,0.00,0.0,meteohub,2013-01-20 08:21:00,
2013-01-20 02:26:00,36.0,34.9,30.27,NE,36,0.0,0.0,96,0.00,,,0.00,0.0,meteohub,2013-01-20 08:26:00,
2013-01-20 02:31:00,36.0,34.9,30.27,NE,36,0.0,0.0,96,0.00,,,0.00,0.0,meteohub,2013-01-20 08:31:00,
2013-01-20 02:36:00,36.1,35.1,30.26,NE,36,0.0,0.0,96,0.00,,,0.00,0.0,meteohub,2013-01-20 08:36:00,
2013-01-20 02:41:00,36.1,35.1,30.26,NE,36,0.0,0.0,96,0.00,,,0.00,0.0,meteohub,2013-01-20 08:41:00,
2013-01-20 02:46:00,36.0,34.9,30.26,NE,36,0.0,0.0,96,0.00,,,0.00,0.0,meteohub,2013-01-20 08:46:00,
2013-01-20 02:51:00,35.8,34.7,30.26,NE,36,0.0,0.0,96,0.00,,,0.00,0.0,meteohub,2013-01-20 08:51:00,
2013-01-20 02:56:00,35.8,34.7,30.26,NE,36,0.0,0.0,96,0.00,,,0.00,0.0,meteohub,2013-01-20 08:56:00,
2013-01-20 03:01:00,35.6,34.5,30.26,NE,36,0.0,0.0,96,0.00,,,0.00,0.0,meteohub,2013-01-20 09:01:00,
2013-01-20 03:06:00,35.6,34.5,30.26,NE,36,0.0,0.0,96,0.00,,,0.00,0.0,meteohub,2013-01-20 09:06:00,
2013-01-20 03:11:00,35.4,34.3,30.26,NE,36,0.0,0.0,96,0.00,,,0.00,0.0,meteohub,2013-01-20 09:11:00,
2013-01-20 03:16:00,35.6,34.5,30.26,NE,36,0.0,0.0,96,0.00,,,0.00,0.0,meteohub,2013-01-20 09:16:00,
2013-01-20 03:21:00,35.8,34.7,30.26,NE,36,0.0,0.0,96,0.00,,,0.00,0.0,meteohub,2013-01-20 09:21:00,
2013-01-20 03:26:00,35.6,34.5,30.26,NE,36,0.0,0.0,96,0.00,,,0.00,0.0,meteohub,2013-01-20 09:26:00,
2013-01-20 03:31:00,35.4,34.3,30.26,NE,36,0.0,0.0,96,0.00,,,0.00,0.0,meteohub,2013-01-20 09:31:00,
2013-01-20 03:36:00,35.4,34.3,30.25,NE,36,0.0,0.0,96,0.00,,,0.00,0.0,meteohub,2013-01-20 09:36:00,
2013-01-20 03:41:00,35.4,34.3,30.25,NE,36,0.0,0.0,96,0.00,,,0.00,0.0,meteohub,2013-01-20 09:41:00,
2013-01-20 03:46:00,35.2,34.2,30.25,NE,36,0.0,0.0,96,0.00,,,0.00,0.0,meteohub,2013-01-20 09:46:00,
2013-01-20 03:51:00,35.1,34.0,30.25,NE,36,0.0,0.0,96,0.00,,,0.00,0.0,meteohub,2013-01-20 09:51:00,
2013-01-20 03:56:00,35.1,34.0,30.25,NE,36,0.0,0.0,96,0.00,,,0.00,0.0,meteohub,2013-01-20 09:56:00,
2013-01-20 04:01:00,34.9,33.8,30.26,NE,36,0.0,0.0,96,0.00,,,0.00,0.0,meteohub,2013-01-20 10:01:00,
2013-01-20 04:06:00,35.1,34.0,30.25,NE,36,0.0,0.0,96,0.00,,,0.00,0.0,meteohub,2013-01-20 10:06:00,
2013-01-20 04:11:00,34.9,33.8,30.25,NE,36,0.0,0.0,96,0.00,,,0.00,0.0,meteohub,2013-01-20 10:11:00,
2013-01-20 04:16:00,34.9,33.8,30.25,NE,36,0.0,0.0,96,0.00,,,0.00,0.0,meteohub,2013-01-20 10:16:00,
2013-01-20 04:22:00,34.9,33.8,30.25,NE,36,0.0,0.0,96,0.00,,,0.00,0.0,meteohub,2013-01-20 10:22:00,
2013-01-20 04:27:00,34.9,33.8,30.25,NE,36,0.0,0.0,96,0.00,,,0.00,0.0,meteohub,2013-01-20 10:27:00,
2013-01-20 04:32:00,34.3,33.3,30.25,NE,36,0.0,0.0,96,0.00,,,0.00,0.0,meteohub,2013-01-20 10:32:00,
2013-01-20 04:37:00,34.3,33.3,30.25,NE,36,0.0,0.0,96,0.00,,,0.00,0.0,meteohub,2013-01-20 10:37:00,
2013-01-20 04:42:00,34.3,33.3,30.25,NE,36,0.0,0.0,96,0.00,,,0.00,0.0,meteohub,2013-01-20 10:42:00,
2013-01-20 04:47:00,34.3,33.3,30.25,NE,36,0.0,0.0,96,0.00,,,0.00,0.0,meteohub,2013-01-20 10:47:00,
2013-01-20 04:52:00,34.3,33.3,30.25,NE,36,0.0,0.0,96,0.00,,,0.00,0.0,meteohub,2013-01-20 10:52:00,
2013-01-20 04:57:00,34.2,33.1,30.25,NE,36,0.0,0.0,96,0.00,,,0.00,0.0,meteohub,2013-01-20 10:57:00,
2013-01-20 05:02:00,34.2,33.1,30.25,NE,36,0.0,0.0,96,0.00,,,0.00,0.0,meteohub,2013-01-20 11:02:00,
2013-01-20 05:07:00,34.2,33.1,30.25,NE,36,0.0,0.0,96,0.00,,,0.00,0.0,meteohub,2013-01-20 11:07:00,
2013-01-20 05:12:00,34.2,33.1,30.25,NE,36,0.0,0.0,96,0.00,,,0.00,0.0,meteohub,2013-01-20 11:12:00,
2013-01-20 05:17:00,34.2,33.1,30.25,NE,36,0.0,0.0,96,0.00,,,0.00,0.0,meteohub,2013-01-20 11:17:00,
2013-01-20 05:22:00,34.2,33.1,30.25,NE,36,0.0,0.0,96,0.00,,,0.00,0.0,meteohub,2013-01-20 11:22:00,
2013-01-20 05:27:00,34.2,33.1,30.25,NE,36,0.0,0.0,96,0.00,,,0.00,0.0,meteohub,2013-01-20 11:27:00,
2013-01-20 05:32:00,34.3,33.3,30.25,NE,36,0.0,0.0,96,0.00,,,0.00,0.0,meteohub,2013-01-20 11:32:00,
2013-01-20 05:37:00,34.3,33.3,30.25,NE,36,0.0,0.0,96,0.00,,,0.00,0.0,meteohub,2013-01-20 11:37:00,
2013-01-20 05:42:00,34.3,33.3,30.25,NE,36,0.0,0.0,96,0.00,,,0.00,0.0,meteohub,2013-01-20 11:42:00,
2013-01-20 05:47:00,34.2,33.1,30.25,NE,36,0.0,0.0,96,0.00,,,0.00,0.0,meteohub,2013-01-20 11:47:00,
2013-01-20 05:52:00,34.2,33.1,30.25,NE,36,0.0,0.0,96,0.00,,,0.00,0.0,meteohub,2013-01-20 11:52:00,
2013-01-20 05:57:00,34.2,33.1,30.25,NE,36,0.0,0.0,96,0.00,,,0.00,0.0,meteohub,2013-01-20 11:57:00,
2013-01-20 06:02:00,34.2,33.1,30.25,NE,36,0.0,0.0,96,0.00,,,0.00,0.0,meteohub,2013-01-20 12:02:00,
2013-01-20 06:07:00,34.2,33.1,30.25,NE,36,0.0,0.0,96,0.00,,,0.00,0.0,meteohub,2013-01-20 12:07:00,
2013-01-20 06:12:00,34.2,33.1,30.25,NE,36,0.0,0.0,96,0.00,,,0.00,0.0,meteohub,2013-01-20 12:12:00,
2013-01-20 06:17:00,34.0,32.9,30.25,NE,36,0.0,0.0,96,0.00,,,0.00,0.0,meteohub,2013-01-20 12:17:00,
2013-01-20 06:22:00,34.0,32.9,30.25,NE,36,0.0,0.0,96,0.00,,,0.00,0.0,meteohub,2013-01-20 12:22:00,
2013-01-20 06:27:00,33.8,32.7,30.25,NE,36,0.0,0.0,96,0.00,,,0.00,0.0,meteohub,2013-01-20 12:27:00,
2013-01-20 06:32:00,33.8,32.7,30.25,NE,36,0.0,0.0,96,0.00,,,0.00,0.0,meteohub,2013-01-20 12:32:00,
2013-01-20 06:37:00,33.8,32.7,30.25,NE,36,0.0,0.0,96,0.00,,,0.00,0.0,meteohub,2013-01-20 12:37:00,
2013-01-20 06:42:00,33.8,32.7,30.26,NE,36,0.0,0.0,96,0.00,,,0.00,0.0,meteohub,2013-01-20 12:42:00,
2013-01-20 06:47:00,33.6,32.5,30.26,NE,36,0.0,0.0,96,0.00,,,0.00,0.0,meteohub,2013-01-20 12:47:00,
2013-01-20 06:52:00,33.4,32.4,30.26,NE,36,0.0,0.0,96,0.00,,,0.00,0.0,meteohub,2013-01-20 12:52:00,
2013-01-20 06:57:00,33.4,32.4,30.25,NE,36,0.0,0.0,96,0.00,,,0.00,0.0,meteohub,2013-01-20 12:57:00,
2013-01-20 07:02:00,33.4,32.4,30.25,NE,36,0.0,0.0,96,0.00,,,0.00,0.0,meteohub,2013-01-20 13:02:00,
2013-01-20 07:07:00,33.4,32.4,30.25,NE,36,0.0,0.0,96,0.00,,,0.00,0.0,meteohub,2013-01-20 13:07:00,
2013-01-20 07:12:00,33.4,32.4,30.25,NE,36,0.0,0.0,96,0.00,,,0.00,7.0,meteohub,2013-01-20 13:12:00,
2013-01-20 07:17:00,33.3,32.2,30.26,NE,36,0.0,0.0,96,0.00,,,0.00,9.0,meteohub,2013-01-20 13:17:00,
2013-01-20 07:22:00,33.3,32.2,30.26,NE,36,0.0,0.0,96,0.00,,,0.00,12.0,meteohub,2013-01-20 13:22:00,
2013-01-20 07:29:00,33.4,32.4,30.26,NE,36,0.0,0.0,96,0.00,,,0.00,16.0,meteohub,2013-01-20 13:29:00,
2013-01-20 07:34:00,33.6,32.9,30.26,NE,36,0.0,0.0,97,0.00,,,0.00,19.0,meteohub,2013-01-20 13:34:00,
2013-01-20 07:39:00,34.0,32.9,30.26,NE,36,0.0,0.0,96,0.00,,,0.00,23.0,meteohub,2013-01-20 13:39:00,
2013-01-20 07:44:00,34.2,33.1,30.26,NE,36,0.0,0.0,96,0.00,,,0.00,25.0,meteohub,2013-01-20 13:44:00,
2013-01-20 07:49:00,34.3,33.6,30.27,NE,36,0.0,0.0,97,0.00,,,0.00,26.0,meteohub,2013-01-20 13:49:00,
2013-01-20 07:54:00,34.9,34.2,30.27,NE,36,0.0,0.0,97,0.00,,,0.00,30.0,meteohub,2013-01-20 13:54:00,
2013-01-20 07:59:00,35.2,34.5,30.27,NE,36,0.0,0.0,97,0.00,,,0.00,32.0,meteohub,2013-01-20 13:59:00,
2013-01-20 08:04:00,36.0,35.2,30.27,NE,36,0.0,0.0,97,0.00,,,0.00,33.0,meteohub,2013-01-20 14:04:00,
2013-01-20 08:09:00,36.5,35.8,30.27,NE,36,0.0,0.0,97,0.00,,,0.00,35.0,meteohub,2013-01-20 14:09:00,
2013-01-20 08:14:00,36.9,36.1,30.27,NE,36,0.0,0.0,97,0.00,,,0.00,35.0,meteohub,2013-01-20 14:14:00,
2013-01-20 08:19:00,37.2,36.5,30.27,NE,36,0.0,0.0,97,0.00,,,0.00,37.0,meteohub,2013-01-20 14:19:00,
2013-01-20 08:24:00,38.1,37.4,30.27,NE,36,0.0,0.0,97,0.00,,,0.00,40.0,meteohub,2013-01-20 14:24:00,
2013-01-20 08:29:00,38.8,38.1,30.27,NE,36,0.0,0.0,97,0.00,,,0.00,42.0,meteohub,2013-01-20 14:29:00,
2013-01-20 08:34:00,39.7,39.0,30.27,NE,36,0.0,0.0,97,0.00,,,0.00,44.0,meteohub,2013-01-20 14:34:00,
2013-01-20 08:39:00,40.5,39.7,30.27,NE,36,0.0,0.0,97,0.00,,,0.00,46.0,meteohub,2013-01-20 14:39:00,
2013-01-20 08:44:00,41.2,40.5,30.27,NE,36,0.0,0.0,97,0.00,,,0.00,49.0,meteohub,2013-01-20 14:44:00,
2013-01-20 08:49:00,42.1,41.4,30.27,NE,36,0.0,0.0,97,0.00,,,0.00,49.0,meteohub,2013-01-20 14:49:00,
2013-01-20 08:54:00,43.2,42.4,30.27,NE,36,0.0,0.0,97,0.00,,,0.00,60.0,meteohub,2013-01-20 14:54:00,
2013-01-20 08:59:00,43.7,43.0,30.28,NE,36,0.0,0.0,97,0.00,,,0.00,83.0,meteohub,2013-01-20 14:59:00,
2013-01-20 09:04:00,44.6,43.9,30.28,NE,36,0.0,0.0,97,0.00,,,0.00,83.0,meteohub,2013-01-20 15:04:00,
2013-01-20 09:09:00,45.3,44.6,30.28,NE,36,0.0,0.0,97,0.00,,,0.00,315.0,meteohub,2013-01-20 15:09:00,
2013-01-20 09:14:00,46.0,45.0,30.28,NE,36,0.0,1.0,96,0.00,,,0.00,287.0,meteohub,2013-01-20 15:14:00,
2013-01-20 09:19:00,46.8,45.3,30.28,NE,36,0.0,1.0,95,0.00,,,0.00,378.0,meteohub,2013-01-20 15:19:00,
2013-01-20 09:25:00,47.7,46.2,30.29,NE,36,0.0,1.0,95,0.00,,,0.00,329.0,meteohub,2013-01-20 15:25:00,
2013-01-20 09:30:00,47.7,46.0,30.29,NE,36,0.0,1.0,94,0.00,,,0.00,306.0,meteohub,2013-01-20 15:30:00,
2013-01-20 09:35:00,48.0,46.4,30.29,NE,36,0.0,1.0,94,0.00,,,0.00,339.0,meteohub,2013-01-20 15:35:00,
2013-01-20 09:40:00,48.2,46.2,30.29,NE,36,0.0,0.0,93,0.00,,,0.00,264.0,meteohub,2013-01-20 15:40:00,
2013-01-20 09:45:00,48.6,46.4,30.29,NE,37,0.0,0.0,92,0.00,,,0.00,403.0,meteohub,2013-01-20 15:45:00,
2013-01-20 09:50:00,48.9,46.8,30.29,NE,36,0.0,0.0,92,0.00,,,0.00,209.0,meteohub,2013-01-20 15:50:00,
2013-01-20 09:55:00,49.3,46.8,30.29,NE,36,0.0,0.0,91,0.00,,,0.00,260.0,meteohub,2013-01-20 15:55:00,
2013-01-20 10:00:00,49.6,47.1,30.29,NE,36,0.0,0.0,91,0.00,,,0.00,262.0,meteohub,2013-01-20 16:00:00,
2013-01-20 10:05:00,50.4,47.5,30.29,NE,36,0.0,0.0,90,0.00,,,0.00,338.0,meteohub,2013-01-20 16:05:00,
2013-01-20 10:10:00,50.5,47.7,30.30,NE,39,0.0,0.0,90,0.00,,,0.00,364.0,meteohub,2013-01-20 16:10:00,
2013-01-20 10:15:00,51.3,48.4,30.29,NE,38,0.0,1.0,90,0.00,,,0.00,417.0,meteohub,2013-01-20 16:15:00,
2013-01-20 10:20:00,52.2,49.1,30.29,ENE,58,0.0,1.0,89,0.00,,,0.00,427.0,meteohub,2013-01-20 16:20:00,
2013-01-20 10:25:00,53.2,49.5,30.29,ENE,72,0.0,1.0,87,0.00,,,0.00,434.0,meteohub,2013-01-20 16:25:00,
2013-01-20 10:30:00,53.1,48.9,30.29,East,92,0.0,2.0,86,0.00,,,0.00,445.0,meteohub,2013-01-20 16:30:00,
2013-01-20 10:35:00,54.0,49.8,30.29,ESE,117,0.0,2.0,86,0.00,,,0.00,446.0,meteohub,2013-01-20 16:35:00,
2013-01-20 10:40:00,54.5,50.0,30.29,ESE,118,0.0,3.0,85,0.00,,,0.00,443.0,meteohub,2013-01-20 16:40:00,
2013-01-20 10:45:00,54.7,50.0,30.29,SE,124,0.0,3.0,84,0.00,,,0.00,452.0,meteohub,2013-01-20 16:45:00,
2013-01-20 10:50:00,55.0,50.5,30.30,SE,132,0.0,4.0,85,0.00,,,0.00,454.0,meteohub,2013-01-20 16:50:00,
2013-01-20 10:55:00,55.0,50.4,30.29,SE,133,0.0,4.0,84,0.00,,,0.00,448.0,meteohub,2013-01-20 16:55:00,
2013-01-20 11:00:00,55.4,50.7,30.29,SE,133,0.0,4.0,84,0.00,,,0.00,443.0,meteohub,2013-01-20 17:00:00,
2013-01-20 11:05:00,55.8,50.4,30.29,SE,134,0.0,4.0,82,0.00,,,0.00,445.0,meteohub,2013-01-20 17:05:00,
2013-01-20 11:10:00,56.5,51.1,30.28,SE,134,0.0,3.0,82,0.00,,,0.00,445.0,meteohub,2013-01-20 17:10:00,
2013-01-20 11:15:00,56.8,51.1,30.28,SE,136,1.0,3.0,81,0.00,,,0.00,448.0,meteohub,2013-01-20 17:15:00,
2013-01-20 11:20:00,57.6,51.8,30.28,SE,136,0.0,3.0,81,0.00,,,0.00,464.0,meteohub,2013-01-20 17:20:00,
2013-01-20 11:25:00,58.1,51.6,30.27,SE,136,0.0,3.0,79,0.00,,,0.00,490.0,meteohub,2013-01-20 17:25:00,
2013-01-20 11:30:00,57.7,51.3,30.27,SE,146,0.0,3.0,79,0.00,,,0.00,527.0,meteohub,2013-01-20 17:30:00,
2013-01-20 11:35:00,58.5,52.0,30.26,SE,146,0.0,3.0,79,0.00,,,0.00,573.0,meteohub,2013-01-20 17:35:00,
2013-01-20 11:40:00,59.2,52.3,30.26,SSE,149,0.0,3.0,78,0.00,,,0.00,617.0,meteohub,2013-01-20 17:40:00,
2013-01-20 11:45:00,59.0,51.4,30.26,SSE,149,0.0,3.0,76,0.00,,,0.00,640.0,meteohub,2013-01-20 17:45:00,
2013-01-20 11:50:00,59.9,52.7,30.26,SSE,149,0.0,3.0,77,0.00,,,0.00,663.0,meteohub,2013-01-20 17:50:00,
2013-01-20 11:55:00,60.6,52.3,30.25,SSE,156,0.0,3.0,74,0.00,,,0.00,671.0,meteohub,2013-01-20 17:55:00,
2013-01-20 12:00:00,60.3,51.3,30.25,SSE,156,0.0,4.0,72,0.00,,,0.00,670.0,meteohub,2013-01-20 18:00:00,
2013-01-20 12:05:00,61.2,51.6,30.25,SSE,156,0.0,4.0,71,0.00,,,0.00,673.0,meteohub,2013-01-20 18:05:00,
2013-01-20 12:10:00,60.6,51.1,30.24,SSE,157,0.0,2.0,71,0.00,,,0.00,677.0,meteohub,2013-01-20 18:10:00,
2013-01-20 12:16:00,61.0,51.4,30.23,SSE,163,0.0,3.0,71,0.00,,,0.00,675.0,meteohub,2013-01-20 18:16:00,
2013-01-20 12:21:00,61.9,49.6,30.23,SSE,165,0.0,3.0,64,0.00,,,0.00,679.0,meteohub,2013-01-20 18:21:00,
2013-01-20 12:26:00,61.9,46.4,30.22,SSE,165,0.0,3.0,57,0.00,,,0.00,677.0,meteohub,2013-01-20 18:26:00,
2013-01-20 12:31:00,62.1,46.2,30.22,SSE,166,0.0,3.0,56,0.00,,,0.00,675.0,meteohub,2013-01-20 18:31:00,
2013-01-20 12:36:00,62.4,49.3,30.22,SSE,166,2.0,3.0,62,0.00,,,0.00,673.0,meteohub,2013-01-20 18:36:00,
2013-01-20 12:41:00,63.3,49.3,30.22,SSE,166,0.0,3.0,60,0.00,,,0.00,675.0,meteohub,2013-01-20 18:41:00,
2013-01-20 12:46:00,63.0,46.6,30.22,South,171,0.0,3.0,55,0.00,,,0.00,671.0,meteohub,2013-01-20 18:46:00,
2013-01-20 12:51:00,63.1,46.2,30.21,South,171,0.0,3.0,54,0.00,,,0.00,670.0,meteohub,2013-01-20 18:51:00,
2013-01-20 12:56:00,63.7,47.3,30.21,South,171,0.0,5.0,55,0.00,,,0.00,663.0,meteohub,2013-01-20 18:56:00,
2013-01-20 13:01:00,63.1,46.8,30.21,South,183,3.0,5.0,55,0.00,,,0.00,663.0,meteohub,2013-01-20 19:01:00,
2013-01-20 13:06:00,63.0,46.0,30.20,South,183,0.0,4.0,54,0.00,,,0.00,659.0,meteohub,2013-01-20 19:06:00,
2013-01-20 13:11:00,63.3,46.4,30.20,South,185,0.0,4.0,54,0.00,,,0.00,656.0,meteohub,2013-01-20 19:11:00,
2013-01-20 13:16:00,63.7,46.2,30.19,South,186,0.0,4.0,53,0.00,,,0.00,649.0,meteohub,2013-01-20 19:16:00,
2013-01-20 13:21:00,64.2,47.3,30.19,South,185,3.0,3.0,54,0.00,,,0.00,642.0,meteohub,2013-01-20 19:21:00,
2013-01-20 13:26:00,63.7,45.7,30.19,South,187,0.0,5.0,52,0.00,,,0.00,517.0,meteohub,2013-01-20 19:26:00,
2013-01-20 13:31:00,64.2,46.2,30.18,South,187,0.0,5.0,52,0.00,,,0.00,628.0,meteohub,2013-01-20 19:31:00,
2013-01-20 13:36:00,64.2,46.8,30.18,South,188,0.0,5.0,53,0.00,,,0.00,538.0,meteohub,2013-01-20 19:36:00,
2013-01-20 13:41:00,63.7,47.3,30.18,South,190,1.0,5.0,55,0.00,,,0.00,462.0,meteohub,2013-01-20 19:41:00,
2013-01-20 13:46:00,63.3,47.3,30.18,NW,318,0.0,5.0,56,0.00,,,0.00,250.0,meteohub,2013-01-20 19:46:00,
2013-01-20 13:51:00,63.9,47.3,30.17,SW,218,2.0,5.0,55,0.00,,,0.00,452.0,meteohub,2013-01-20 19:51:00,
2013-01-20 13:56:00,63.9,47.3,30.18,SW,219,0.0,4.0,55,0.00,,,0.00,278.0,meteohub,2013-01-20 19:56:00,
2013-01-20 14:01:00,63.5,47.1,30.17,West,272,0.0,7.0,55,0.00,,,0.00,174.0,meteohub,2013-01-20 20:01:00,
2013-01-20 14:06:00,63.3,46.9,30.17,SW,235,0.0,7.0,55,0.00,,,0.00,70.0,meteohub,2013-01-20 20:06:00,
2013-01-20 14:11:00,63.7,47.7,30.17,SW,235,0.0,7.0,56,0.00,,,0.00,555.0,meteohub,2013-01-20 20:11:00,
2013-01-20 14:16:00,63.9,47.8,30.17,WNW,285,5.0,5.0,56,0.00,,,0.00,485.0,meteohub,2013-01-20 20:16:00,
2013-01-20 14:21:00,63.7,47.3,30.16,SSW,196,3.0,3.0,55,0.00,,,0.00,350.0,meteohub,2013-01-20 20:21:00,
2013-01-20 14:26:00,63.7,47.3,30.16,SSW,194,0.0,6.0,55,0.00,,,0.00,279.0,meteohub,2013-01-20 20:26:00,
2013-01-20 14:31:00,63.7,47.7,30.16,WNW,289,0.0,6.0,56,0.00,,,0.00,107.0,meteohub,2013-01-20 20:31:00,
2013-01-20 14:36:00,64.0,47.1,30.16,SW,221,0.0,4.0,54,0.00,,,0.00,190.0,meteohub,2013-01-20 20:36:00,
2013-01-20 14:41:00,64.0,47.1,30.16,WNW,283,0.0,4.0,54,0.00,,,0.00,193.0,meteohub,2013-01-20 20:41:00,
2013-01-20 14:46:00,63.7,46.8,30.16,WNW,283,0.0,5.0,54,0.00,,,0.00,127.0,meteohub,2013-01-20 20:46:00,
2013-01-20 14:51:00,63.5,46.6,30.16,WSW,248,0.0,5.0,54,0.00,,,0.00,272.0,meteohub,2013-01-20 20:51:00,
2013-01-20 14:56:00,63.7,46.2,30.16,WSW,248,0.0,5.0,53,0.00,,,0.00,60.0,meteohub,2013-01-20 20:56:00,
2013-01-20 15:01:00,63.7,46.8,30.15,SSW,202,2.0,4.0,54,0.00,,,0.00,44.0,meteohub,2013-01-20 21:01:00,
2013-01-20 15:06:00,63.9,45.9,30.15,SW,221,0.0,4.0,52,0.00,,,0.00,60.0,meteohub,2013-01-20 21:06:00,
2013-01-20 15:11:00,63.7,45.7,30.15,SW,231,0.0,4.0,52,0.00,,,0.00,53.0,meteohub,2013-01-20 21:11:00,
2013-01-20 15:16:00,63.9,45.3,30.15,SW,230,0.0,5.0,51,0.00,,,0.00,158.0,meteohub,2013-01-20 21:16:00,
2013-01-20 15:21:00,64.0,42.3,30.15,SW,231,0.0,3.0,45,0.00,,,0.00,77.0,meteohub,2013-01-20 21:21:00,
2013-01-20 15:27:00,64.2,44.1,30.15,SW,231,0.0,1.0,48,0.00,,,0.00,62.0,meteohub,2013-01-20 21:27:00,
2013-01-20 15:32:00,64.2,43.5,30.15,SW,231,2.0,2.0,47,0.00,,,0.00,237.0,meteohub,2013-01-20 21:32:00,
2013-01-20 15:37:00,64.2,42.4,30.16,SW,231,0.0,1.0,45,0.00,,,0.00,195.0,meteohub,2013-01-20 21:37:00,
2013-01-20 15:42:00,64.6,43.9,30.15,SW,231,0.0,3.0,47,0.00,,,0.00,232.0,meteohub,2013-01-20 21:42:00,
2013-01-20 15:47:00,64.2,40.1,30.15,SW,226,0.0,3.0,41,0.00,,,0.00,288.0,meteohub,2013-01-20 21:47:00,
2013-01-20 15:52:00,64.2,40.1,30.15,SW,227,0.0,3.0,41,0.00,,,0.00,279.0,meteohub,2013-01-20 21:52:00,
2013-01-20 15:57:00,64.0,39.9,30.15,SW,226,0.0,3.0,41,0.00,,,0.00,262.0,meteohub,2013-01-20 21:57:00,
2013-01-20 16:02:00,64.0,39.2,30.15,SW,226,0.0,1.0,40,0.00,,,0.00,46.0,meteohub,2013-01-20 22:02:00,
2013-01-20 16:07:00,64.0,39.9,30.14,SW,227,0.0,1.0,41,0.00,,,0.00,30.0,meteohub,2013-01-20 22:07:00,
2013-01-20 16:12:00,64.0,39.9,30.14,SW,226,0.0,1.0,41,0.00,,,0.00,146.0,meteohub,2013-01-20 22:12:00,
2013-01-20 16:17:00,63.9,40.3,30.14,SW,227,0.0,1.0,42,0.00,,,0.00,105.0,meteohub,2013-01-20 22:17:00,
2013-01-20 16:22:00,63.7,40.8,30.14,SW,227,0.0,0.0,43,0.00,,,0.00,35.0,meteohub,2013-01-20 22:22:00,
2013-01-20 16:27:00,63.7,40.8,30.15,SW,227,0.0,0.0,43,0.00,,,0.00,118.0,meteohub,2013-01-20 22:27:00,
2013-01-20 16:33:00,63.7,41.4,30.15,NW,304,0.0,4.0,44,0.00,,,0.00,79.0,meteohub,2013-01-20 22:33:00,
2013-01-20 16:38:00,63.3,41.5,30.15,NW,304,0.0,4.0,45,0.00,,,0.00,32.0,meteohub,2013-01-20 22:38:00,
2013-01-20 16:43:00,62.8,42.8,30.15,NW,304,0.0,4.0,48,0.00,,,0.00,25.0,meteohub,2013-01-20 22:43:00,
2013-01-20 16:48:00,62.4,42.4,30.15,NW,304,0.0,4.0,48,0.00,,,0.00,28.0,meteohub,2013-01-20 22:48:00,
2013-01-20 16:53:00,62.1,43.2,30.15,NW,304,0.0,0.0,50,0.00,,,0.00,28.0,meteohub,2013-01-20 22:53:00,
2013-01-20 16:58:00,61.9,41.9,30.14,NW,304,0.0,0.0,48,0.00,,,0.00,19.0,meteohub,2013-01-20 22:58:00,
2013-01-20 17:03:00,61.5,43.2,30.15,NW,304,0.0,0.0,51,0.00,,,0.00,18.0,meteohub,2013-01-20 23:03:00,
2013-01-20 17:08:00,61.0,42.8,30.15,NW,304,0.0,0.0,51,0.00,,,0.00,16.0,meteohub,2013-01-20 23:08:00,
2013-01-20 17:13:00,60.4,43.2,30.15,NW,304,0.0,0.0,53,0.00,,,0.00,14.0,meteohub,2013-01-20 23:13:00,
2013-01-20 17:18:00,59.7,43.0,30.15,NW,304,0.0,0.0,54,0.00,,,0.00,11.0,meteohub,2013-01-20 23:18:00,
2013-01-20 17:23:00,59.5,42.8,30.15,NW,304,0.0,0.0,54,0.00,,,0.00,9.0,meteohub,2013-01-20 23:23:00,
2013-01-20 17:28:00,59.0,42.8,30.15,NW,304,0.0,0.0,55,0.00,,,0.00,5.0,meteohub,2013-01-20 23:28:00,
2013-01-20 17:33:00,58.6,43.5,30.15,NW,304,0.0,0.0,57,0.00,,,0.00,0.0,meteohub,2013-01-20 23:33:00,
2013-01-20 17:38:00,58.1,43.3,30.15,NW,304,0.0,0.0,58,0.00,,,0.00,0.0,meteohub,2013-01-20 23:38:00,
2013-01-20 17:43:00,57.6,43.0,30.14,NW,304,0.0,0.0,58,0.00,,,0.00,0.0,meteohub,2013-01-20 23:43:00,
2013-01-20 17:48:00,56.8,42.6,30.14,NW,304,0.0,0.0,59,0.00,,,0.00,0.0,meteohub,2013-01-20 23:48:00,
2013-01-20 17:53:00,56.1,43.3,30.15,NW,304,0.0,0.0,62,0.00,,,0.00,0.0,meteohub,2013-01-20 23:53:00,
2013-01-20 17:58:00,55.6,43.2,30.15,NW,304,0.0,0.0,63,0.00,,,0.00,0.0,meteohub,2013-01-20 23:58:00,
2013-01-20 18:04:00,55.2,43.7,30.14,NW,304,0.0,0.0,65,0.00,,,0.00,0.0,meteohub,2013-01-21 00:04:00,
2013-01-20 18:09:00,55.2,44.1,30.14,NW,304,0.0,0.0,66,0.00,,,0.00,0.0,meteohub,2013-01-21 00:09:00,
2013-01-20 18:14:00,54.9,44.1,30.15,NW,304,0.0,0.0,67,0.00,,,0.00,0.0,meteohub,2013-01-21 00:14:00,
2013-01-20 18:19:00,54.0,44.1,30.15,NW,304,0.0,0.0,69,0.00,,,0.00,0.0,meteohub,2013-01-21 00:19:00,
2013-01-20 18:24:00,53.4,43.9,30.16,NW,304,0.0,0.0,70,0.00,,,0.00,0.0,meteohub,2013-01-21 00:24:00,
2013-01-20 18:29:00,53.2,43.7,30.16,NW,304,0.0,0.0,70,0.00,,,0.00,0.0,meteohub,2013-01-21 00:29:00,
2013-01-20 18:34:00,53.1,43.9,30.16,NW,304,0.0,0.0,71,0.00,,,0.00,0.0,meteohub,2013-01-21 00:34:00,
2013-01-20 18:39:00,52.5,43.7,30.16,NW,304,0.0,0.0,72,0.00,,,0.00,0.0,meteohub,2013-01-21 00:39:00,
2013-01-20 18:44:00,52.2,43.7,30.16,NW,304,0.0,0.0,73,0.00,,,0.00,0.0,meteohub,2013-01-21 00:44:00,
2013-01-20 18:49:00,51.6,43.5,30.16,NW,304,0.0,0.0,74,0.00,,,0.00,0.0,meteohub,2013-01-21 00:49:00,
2013-01-20 18:54:00,51.6,43.5,30.16,NW,304,0.0,0.0,74,0.00,,,0.00,0.0,meteohub,2013-01-21 00:54:00,
2013-01-20 18:59:00,51.4,43.5,30.16,NW,304,0.0,0.0,74,0.00,,,0.00,0.0,meteohub,2013-01-21 00:59:00,
2013-01-20 19:04:00,51.3,43.5,30.16,NW,304,0.0,0.0,75,0.00,,,0.00,0.0,meteohub,2013-01-21 01:04:00,
2013-01-20 19:09:00,50.9,43.5,30.16,NW,304,0.0,0.0,76,0.00,,,0.00,0.0,meteohub,2013-01-21 01:09:00,
2013-01-20 19:14:00,50.5,43.5,30.16,NW,304,0.0,0.0,77,0.00,,,0.00,0.0,meteohub,2013-01-21 01:14:00,
2013-01-20 19:19:00,50.4,43.3,30.16,NW,304,0.0,1.0,77,0.00,,,0.00,0.0,meteohub,2013-01-21 01:19:00,
2013-01-20 19:24:00,50.2,43.5,30.16,NW,304,0.0,1.0,78,0.00,,,0.00,0.0,meteohub,2013-01-21 01:24:00,
2013-01-20 19:29:00,50.2,43.5,30.16,NW,304,0.0,1.0,78,0.00,,,0.00,0.0,meteohub,2013-01-21 01:29:00,
2013-01-20 19:34:00,50.4,43.3,30.16,NW,304,0.0,0.0,77,0.00,,,0.00,0.0,meteohub,2013-01-21 01:34:00,
2013-01-20 19:39:00,50.2,43.3,30.16,NW,304,0.0,0.0,77,0.00,,,0.00,0.0,meteohub,2013-01-21 01:39:00,
2013-01-20 19:45:00,49.8,43.2,30.16,NW,304,0.0,0.0,78,0.00,,,0.00,0.0,meteohub,2013-01-21 01:45:00,
2013-01-20 19:50:00,49.5,43.2,30.17,NW,304,0.0,0.0,79,0.00,,,0.00,0.0,meteohub,2013-01-21 01:50:00,
2013-01-20 19:55:00,49.3,43.3,30.17,NW,304,0.0,0.0,80,0.00,,,0.00,0.0,meteohub,2013-01-21 01:55:00,
2013-01-20 20:00:00,48.9,43.0,30.17,NW,304,0.0,0.0,80,0.00,,,0.00,0.0,meteohub,2013-01-21 02:00:00,
2013-01-20 20:05:00,48.7,43.2,30.17,NW,304,0.0,0.0,81,0.00,,,0.00,0.0,meteohub,2013-01-21 02:05:00,
2013-01-20 20:10:00,48.6,43.0,30.18,NW,304,0.0,0.0,81,0.00,,,0.00,0.0,meteohub,2013-01-21 02:10:00,
2013-01-20 20:15:00,48.2,43.0,30.17,NW,304,0.0,0.0,82,0.00,,,0.00,0.0,meteohub,2013-01-21 02:15:00,
2013-01-20 20:20:00,47.7,42.8,30.17,NW,304,0.0,0.0,83,0.00,,,0.00,0.0,meteohub,2013-01-21 02:20:00,
2013-01-20 20:25:00,47.5,42.8,30.17,NW,304,0.0,0.0,84,0.00,,,0.00,0.0,meteohub,2013-01-21 02:25:00,
2013-01-20 20:30:00,47.5,42.8,30.17,NW,304,0.0,0.0,84,0.00,,,0.00,0.0,meteohub,2013-01-21 02:30:00,
2013-01-20 20:35:00,47.5,42.8,30.17,NW,304,0.0,0.0,84,0.00,,,0.00,0.0,meteohub,2013-01-21 02:35:00,
2013-01-20 20:40:00,47.3,42.8,30.17,NW,304,0.0,0.0,84,0.00,,,0.00,0.0,meteohub,2013-01-21 02:40:00,
2013-01-20 20:45:00,47.1,42.6,30.17,NW,304,0.0,0.0,84,0.00,,,0.00,0.0,meteohub,2013-01-21 02:45:00,
2013-01-20 20:50:00,47.1,42.8,30.17,NW,304,0.0,0.0,85,0.00,,,0.00,0.0,meteohub,2013-01-21 02:50:00,
2013-01-20 20:55:00,47.1,42.6,30.17,NW,304,0.0,0.0,84,0.00,,,0.00,0.0,meteohub,2013-01-21 02:55:00,
2013-01-20 21:00:00,46.9,42.6,30.18,NW,304,0.0,0.0,85,0.00,,,0.00,0.0,meteohub,2013-01-21 03:00:00,
2013-01-20 21:05:00,46.6,42.3,30.18,NW,304,0.0,0.0,85,0.00,,,0.00,0.0,meteohub,2013-01-21 03:05:00,
2013-01-20 21:10:00,46.6,42.6,30.18,NW,304,0.0,0.0,86,0.00,,,0.00,0.0,meteohub,2013-01-21 03:10:00,
2013-01-20 21:15:00,46.2,42.3,30.18,NW,304,0.0,0.0,86,0.00,,,0.00,0.0,meteohub,2013-01-21 03:15:00,
2013-01-20 21:20:00,46.2,42.6,30.18,NW,304,0.0,0.0,87,0.00,,,0.00,0.0,meteohub,2013-01-21 03:20:00,
2013-01-20 21:25:00,46.2,42.6,30.18,NW,304,0.0,0.0,87,0.00,,,0.00,0.0,meteohub,2013-01-21 03:25:00,
2013-01-20 21:30:00,46.2,42.6,30.18,NW,304,0.0,0.0,87,0.00,,,0.00,0.0,meteohub,2013-01-21 03:30:00,
2013-01-20 21:35:00,45.9,42.3,30.18,NW,304,0.0,0.0,87,0.00,,,0.00,0.0,meteohub,2013-01-21 03:35:00,
2013-01-20 21:40:00,45.9,42.3,30.18,NW,304,0.0,0.0,87,0.00,,,0.00,0.0,meteohub,2013-01-21 03:40:00,
2013-01-20 21:45:00,46.0,42.6,30.18,NW,304,0.0,0.0,88,0.00,,,0.00,0.0,meteohub,2013-01-21 03:45:00,
2013-01-20 21:50:00,46.0,42.4,30.18,NW,304,0.0,0.0,87,0.00,,,0.00,0.0,meteohub,2013-01-21 03:50:00,
2013-01-20 21:56:00,45.9,42.4,30.18,NW,304,0.0,0.0,88,0.00,,,0.00,0.0,meteohub,2013-01-21 03:56:00,
2013-01-20 22:01:00,45.9,42.4,30.18,NW,304,0.0,0.0,88,0.00,,,0.00,0.0,meteohub,2013-01-21 04:01:00,
2013-01-20 22:06:00,45.9,42.4,30.18,NW,304,0.0,0.0,88,0.00,,,0.00,0.0,meteohub,2013-01-21 04:06:00,
2013-01-20 22:11:00,45.5,42.1,30.18,NW,304,0.0,0.0,88,0.00,,,0.00,0.0,meteohub,2013-01-21 04:11:00,
2013-01-20 22:16:00,45.1,41.7,30.18,NW,304,0.0,0.0,88,0.00,,,0.00,0.0,meteohub,2013-01-21 04:16:00,
2013-01-20 22:21:00,45.0,41.9,30.18,NW,304,0.0,0.0,89,0.00,,,0.00,0.0,meteohub,2013-01-21 04:21:00,
2013-01-20 22:26:00,44.4,41.4,30.18,NW,304,0.0,0.0,89,0.00,,,0.00,0.0,meteohub,2013-01-21 04:26:00,
2013-01-20 22:31:00,44.2,41.5,30.18,NW,304,0.0,0.0,90,0.00,,,0.00,0.0,meteohub,2013-01-21 04:31:00,
2013-01-20 22:36:00,44.1,41.5,30.18,NW,304,0.0,0.0,91,0.00,,,0.00,0.0,meteohub,2013-01-21 04:36:00,
2013-01-20 22:41:00,44.1,41.5,30.18,NW,304,0.0,0.0,91,0.00,,,0.00,0.0,meteohub,2013-01-21 04:41:00,
2013-01-20 22:47:00,44.1,41.5,30.17,NW,304,0.0,0.0,91,0.00,,,0.00,0.0,meteohub,2013-01-21 04:47:00,
2013-01-20 22:52:00,43.9,41.4,30.17,NW,304,0.0,0.0,91,0.00,,,0.00,0.0,meteohub,2013-01-21 04:52:00,
2013-01-20 22:57:00,43.5,41.0,30.17,NW,304,0.0,0.0,91,0.00,,,0.00,0.0,meteohub,2013-01-21 04:57:00,
2013-01-20 23:02:00,43.3,41.2,30.17,NW,304,0.0,0.0,92,0.00,,,0.00,0.0,meteohub,2013-01-21 05:02:00,
2013-01-20 23:03:00,43.3,40.8,30.17,NW,304,0.0,0.0,91,0.00,,,0.00,0.0,meteohub,2013-01-21 05:03:00,
2013-01-20 23:04:00,43.3,41.2,30.17,NW,304,0.0,0.0,92,0.00,,,0.00,0.0,meteohub,2013-01-21 05:04:00,
2013-01-20 23:09:00,43.2,41.0,30.17,NW,304,0.0,0.0,92,0.00,,,0.00,0.0,meteohub,2013-01-21 05:09:00,
2013-01-20 23:14:00,43.2,41.0,30.17,NW,304,0.0,0.0,92,0.00,,,0.00,0.0,meteohub,2013-01-21 05:14:00,
2013-01-20 23:19:00,43.0,41.2,30.17,NW,304,0.0,0.0,93,0.00,,,0.00,0.0,meteohub,2013-01-21 05:19:00,
2013-01-20 23:24:00,43.0,41.2,30.17,NW,304,0.0,0.0,93,0.00,,,0.00,0.0,meteohub,2013-01-21 05:24:00,
2013-01-20 23:29:00,43.0,41.2,30.17,NW,304,0.0,0.0,93,0.00,,,0.00,0.0,meteohub,2013-01-21 05:29:00,
2013-01-20 23:34:00,42.8,41.0,30.17,NW,304,0.0,0.0,93,0.00,,,0.00,0.0,meteohub,2013-01-21 05:34:00,
2013-01-20 23:39:00,42.8,41.2,30.17,NW,304,0.0,0.0,94,0.00,,,0.00,0.0,meteohub,2013-01-21 05:39:00,
2013-01-20 23:44:00,42.8,41.2,30.17,NW,304,0.0,0.0,94,0.00,,,0.00,0.0,meteohub,2013-01-21 05:44:00,
2013-01-20 23:49:00,42.6,41.0,30.17,NW,304,0.0,0.0,94,0.00,,,0.00,0.0,meteohub,2013-01-21 05:49:00,
2013-01-20 23:54:00,42.4,40.8,30.17,NW,304,0.0,0.0,94,0.00,,,0.00,0.0,meteohub,2013-01-21 05:54:00,
2013-01-20 23:59:00,42.6,41.0,30.17,NW,304,0.0,0.0,94,0.00,,,0.00,0.0,meteohub,2013-01-21 05:59:00,